Year,Month,Day,Hour,Minute,Value (Times are PST for temperature in C)
2009,09,21,00,00,9.40
2009,09,21,00,01,9.40
2009,09,21,00,02,9.50
2009,09,21,00,03,9.50
2009,09,21,00,04,9.50
2009,09,21,00,05,9.50
2009,09,21,00,06,9.50
2009,09,21,00,07,9.50
2009,09,21,00,08,9.50
2009,09,21,00,09,9.50
2009,09,21,00,10,9.50
2009,09,21,00,11,9.50
2009,09,21,00,12,9.60
2009,09,21,00,13,9.60
2009,09,21,00,14,9.60
2009,09,21,00,15,9.60
2009,09,21,00,16,9.60
2009,09,21,00,17,9.60
2009,09,21,00,18,9.50
2009,09,21,00,19,9.50
2009,09,21,00,20,9.50
2009,09,21,00,21,9.50
2009,09,21,00,22,9.50
2009,09,21,00,23,9.50
2009,09,21,00,24,9.50
2009,09,21,00,25,9.50
2009,09,21,00,26,9.50
2009,09,21,00,27,9.50
2009,09,21,00,28,9.50
2009,09,21,00,29,9.50
2009,09,21,00,30,9.50
2009,09,21,00,31,9.50
2009,09,21,00,32,9.50
2009,09,21,00,33,9.50
2009,09,21,00,34,9.50
2009,09,21,00,35,9.50
2009,09,21,00,36,9.50
2009,09,21,00,37,9.50
2009,09,21,00,38,9.50
2009,09,21,00,39,9.50
2009,09,21,00,40,9.40
2009,09,21,00,41,9.50
2009,09,21,00,42,9.50
2009,09,21,00,43,9.50
2009,09,21,00,44,9.50
2009,09,21,00,45,9.50
2009,09,21,00,46,9.50
2009,09,21,00,47,9.50
2009,09,21,00,48,9.40
2009,09,21,00,49,9.40
2009,09,21,00,50,9.40
2009,09,21,00,51,9.40
2009,09,21,00,52,9.40
2009,09,21,00,53,9.30
2009,09,21,00,54,9.40
2009,09,21,00,55,9.40
2009,09,21,00,56,9.40
2009,09,21,00,57,9.40
2009,09,21,00,58,9.40
2009,09,21,00,59,9.40
2009,09,21,01,00,9.40
2009,09,21,01,01,9.40
2009,09,21,01,02,9.40
2009,09,21,01,03,9.40
2009,09,21,01,04,9.40
2009,09,21,01,05,9.40
2009,09,21,01,06,9.40
2009,09,21,01,07,9.40
2009,09,21,01,08,9.40
2009,09,21,01,09,9.40
2009,09,21,01,10,9.40
2009,09,21,01,11,9.30
2009,09,21,01,12,9.30
2009,09,21,01,13,9.30
2009,09,21,01,14,9.30
2009,09,21,01,15,9.30
2009,09,21,01,16,9.30
2009,09,21,01,17,9.30
2009,09,21,01,18,9.30
2009,09,21,01,19,9.30
2009,09,21,01,20,9.30
2009,09,21,01,21,9.30
2009,09,21,01,22,9.20
2009,09,21,01,23,9.20
2009,09,21,01,24,9.20
2009,09,21,01,25,9.20
2009,09,21,01,26,9.30
2009,09,21,01,27,9.30
2009,09,21,01,28,9.30
2009,09,21,01,29,9.30
2009,09,21,01,30,9.30
2009,09,21,01,31,9.30
2009,09,21,01,32,9.30
2009,09,21,01,33,9.30
2009,09,21,01,34,9.30
2009,09,21,01,35,9.30
2009,09,21,01,36,9.30
2009,09,21,01,37,9.30
2009,09,21,01,38,9.30
2009,09,21,01,39,9.30
2009,09,21,01,40,9.30
2009,09,21,01,41,9.30
2009,09,21,01,42,9.30
2009,09,21,01,43,9.20
2009,09,21,01,44,9.20
2009,09,21,01,45,9.20
2009,09,21,01,46,9.20
2009,09,21,01,47,9.20
2009,09,21,01,48,9.20
2009,09,21,01,49,9.20
2009,09,21,01,50,9.20
2009,09,21,01,51,9.20
2009,09,21,01,52,9.30
2009,09,21,01,53,9.30
2009,09,21,01,54,9.30
2009,09,21,01,55,9.30
2009,09,21,01,56,9.30
2009,09,21,01,57,9.20
2009,09,21,01,58,9.20
2009,09,21,01,59,9.20
2009,09,21,02,00,9.20
2009,09,21,02,01,9.20
2009,09,21,02,02,9.20
2009,09,21,02,03,9.20
2009,09,21,02,04,9.20
2009,09,21,02,05,9.20
2009,09,21,02,06,9.20
2009,09,21,02,07,9.20
2009,09,21,02,08,9.20
2009,09,21,02,09,9.20
2009,09,21,02,10,9.20
2009,09,21,02,11,9.20
2009,09,21,02,12,9.20
2009,09,21,02,13,9.20
2009,09,21,02,14,9.20
2009,09,21,02,15,9.20
2009,09,21,02,16,9.20
2009,09,21,02,17,9.20
2009,09,21,02,18,9.20
2009,09,21,02,19,9.20
2009,09,21,02,20,9.20
2009,09,21,02,21,9.20
2009,09,21,02,22,9.20
2009,09,21,02,23,9.20
2009,09,21,02,24,9.20
2009,09,21,02,25,9.20
2009,09,21,02,26,9.20
2009,09,21,02,27,9.20
2009,09,21,02,28,9.20
2009,09,21,02,29,9.20
2009,09,21,02,30,9.20
2009,09,21,02,31,9.10
2009,09,21,02,32,9.10
2009,09,21,02,33,9.10
2009,09,21,02,34,9.00
2009,09,21,02,35,9.00
2009,09,21,02,36,9.00
2009,09,21,02,37,9.00
2009,09,21,02,38,8.90
2009,09,21,02,39,8.90
2009,09,21,02,40,8.90
2009,09,21,02,41,8.80
2009,09,21,02,42,8.80
2009,09,21,02,43,8.80
2009,09,21,02,44,8.70
2009,09,21,02,45,8.70
2009,09,21,02,46,8.70
2009,09,21,02,47,8.60
2009,09,21,02,48,8.50
2009,09,21,02,49,8.40
2009,09,21,02,50,8.40
2009,09,21,02,51,8.30
2009,09,21,02,52,8.30
2009,09,21,02,53,8.30
2009,09,21,02,54,8.20
2009,09,21,02,55,8.20
2009,09,21,02,56,8.20
2009,09,21,02,57,8.20
2009,09,21,02,58,8.20
2009,09,21,02,59,8.20
2009,09,21,03,00,8.10
2009,09,21,03,01,8.00
2009,09,21,03,02,8.00
2009,09,21,03,03,8.00
2009,09,21,03,04,7.90
2009,09,21,03,05,7.90
2009,09,21,03,06,7.90
2009,09,21,03,07,7.90
2009,09,21,03,08,7.90
2009,09,21,03,09,7.80
2009,09,21,03,10,7.80
2009,09,21,03,11,7.80
2009,09,21,03,12,7.80
2009,09,21,03,13,7.80
2009,09,21,03,14,7.80
2009,09,21,03,15,7.80
2009,09,21,03,16,7.80
2009,09,21,03,17,7.80
2009,09,21,03,18,7.80
2009,09,21,03,19,7.90
2009,09,21,03,20,7.90
2009,09,21,03,21,7.90
2009,09,21,03,22,7.90
2009,09,21,03,23,7.90
2009,09,21,03,24,7.90
2009,09,21,03,25,7.90
2009,09,21,03,26,8.00
2009,09,21,03,27,8.00
2009,09,21,03,28,8.10
2009,09,21,03,29,8.20
2009,09,21,03,30,8.20
2009,09,21,03,31,8.20
2009,09,21,03,32,8.20
2009,09,21,03,33,8.30
2009,09,21,03,34,8.30
2009,09,21,03,35,8.30
2009,09,21,03,36,8.30
2009,09,21,03,37,8.30
2009,09,21,03,38,8.30
2009,09,21,03,39,8.30
2009,09,21,03,40,8.30
2009,09,21,03,41,8.30
2009,09,21,03,42,8.30
2009,09,21,03,43,8.30
2009,09,21,03,44,8.30
2009,09,21,03,45,8.30
2009,09,21,03,46,8.30
2009,09,21,03,47,8.20
2009,09,21,03,48,8.20
2009,09,21,03,49,8.20
2009,09,21,03,50,8.20
2009,09,21,03,51,8.20
2009,09,21,03,52,8.20
2009,09,21,03,53,8.20
2009,09,21,03,54,8.30
2009,09,21,03,55,8.30
2009,09,21,03,56,8.30
2009,09,21,03,57,8.40
2009,09,21,03,58,8.40
2009,09,21,03,59,8.40
2009,09,21,04,00,8.40
2009,09,21,04,01,8.40
2009,09,21,04,02,8.40
2009,09,21,04,03,8.40
2009,09,21,04,04,8.40
2009,09,21,04,05,8.50
2009,09,21,04,06,8.50
2009,09,21,04,07,8.50
2009,09,21,04,08,8.50
2009,09,21,04,09,8.50
2009,09,21,04,10,8.50
2009,09,21,04,11,8.50
2009,09,21,04,12,8.50
2009,09,21,04,13,8.50
2009,09,21,04,14,8.50
2009,09,21,04,15,8.50
2009,09,21,04,16,8.50
2009,09,21,04,17,8.50
2009,09,21,04,18,8.50
2009,09,21,04,19,8.50
2009,09,21,04,20,8.50
2009,09,21,04,21,8.50
2009,09,21,04,22,8.50
2009,09,21,04,23,8.50
2009,09,21,04,24,8.50
2009,09,21,04,25,8.50
2009,09,21,04,26,8.60
2009,09,21,04,27,8.60
2009,09,21,04,28,8.60
2009,09,21,04,29,8.60
2009,09,21,04,30,8.60
2009,09,21,04,31,8.60
2009,09,21,04,32,8.50
2009,09,21,04,33,8.50
2009,09,21,04,34,8.60
2009,09,21,04,35,8.60
2009,09,21,04,36,8.60
2009,09,21,04,37,8.60
2009,09,21,04,38,8.60
2009,09,21,04,39,8.60
2009,09,21,04,40,8.60
2009,09,21,04,41,8.60
2009,09,21,04,42,8.60
2009,09,21,04,43,8.60
2009,09,21,04,44,8.60
2009,09,21,04,45,8.60
2009,09,21,04,46,8.60
2009,09,21,04,47,8.60
2009,09,21,04,48,8.60
2009,09,21,04,49,8.60
2009,09,21,04,50,8.60
2009,09,21,04,51,8.50
2009,09,21,04,52,8.50
2009,09,21,04,53,8.50
2009,09,21,04,54,8.50
2009,09,21,04,55,8.50
2009,09,21,04,56,8.50
2009,09,21,04,57,8.50
2009,09,21,04,58,8.50
2009,09,21,04,59,8.40
2009,09,21,05,00,8.40
2009,09,21,05,01,8.40
2009,09,21,05,02,8.40
2009,09,21,05,03,8.40
2009,09,21,05,04,8.40
2009,09,21,05,05,8.40
2009,09,21,05,06,8.50
2009,09,21,05,07,8.50
2009,09,21,05,08,8.40
2009,09,21,05,09,8.40
2009,09,21,05,10,8.40
2009,09,21,05,11,8.40
2009,09,21,05,12,8.40
2009,09,21,05,13,8.40
2009,09,21,05,14,8.40
2009,09,21,05,15,8.40
2009,09,21,05,16,8.40
2009,09,21,05,17,8.40
2009,09,21,05,18,8.40
2009,09,21,05,19,8.40
2009,09,21,05,20,8.50
2009,09,21,05,21,8.50
2009,09,21,05,22,8.50
2009,09,21,05,23,8.50
2009,09,21,05,24,8.50
2009,09,21,05,25,8.50
2009,09,21,05,26,8.50
2009,09,21,05,27,8.50
2009,09,21,05,28,8.50
2009,09,21,05,29,8.50
2009,09,21,05,30,8.40
2009,09,21,05,31,8.30
2009,09,21,05,32,8.20
2009,09,21,05,33,8.10
2009,09,21,05,34,8.00
2009,09,21,05,35,7.90
2009,09,21,05,36,7.80
2009,09,21,05,37,7.70
2009,09,21,05,38,7.70
2009,09,21,05,39,7.60
2009,09,21,05,40,7.60
2009,09,21,05,41,7.60
2009,09,21,05,42,7.50
2009,09,21,05,43,7.50
2009,09,21,05,44,7.50
2009,09,21,05,45,7.50
2009,09,21,05,46,7.50
2009,09,21,05,47,7.50
2009,09,21,05,48,7.50
2009,09,21,05,49,7.60
2009,09,21,05,50,7.60
2009,09,21,05,51,7.60
2009,09,21,05,52,7.60
2009,09,21,05,53,7.60
2009,09,21,05,54,7.60
2009,09,21,05,55,7.50
2009,09,21,05,56,7.50
2009,09,21,05,57,7.50
2009,09,21,05,58,7.50
2009,09,21,05,59,7.50
2009,09,21,06,00,7.50
2009,09,21,06,01,7.40
2009,09,21,06,02,7.40
2009,09,21,06,03,7.40
2009,09,21,06,04,7.40
2009,09,21,06,05,7.40
2009,09,21,06,06,7.40
2009,09,21,06,07,7.40
2009,09,21,06,08,7.40
2009,09,21,06,09,7.50
2009,09,21,06,10,7.60
2009,09,21,06,11,7.60
2009,09,21,06,12,7.70
2009,09,21,06,13,7.80
2009,09,21,06,14,7.80
2009,09,21,06,15,7.90
2009,09,21,06,16,7.90
2009,09,21,06,17,8.00
2009,09,21,06,18,8.00
2009,09,21,06,19,8.10
2009,09,21,06,20,8.20
2009,09,21,06,21,8.20
2009,09,21,06,22,8.20
2009,09,21,06,23,8.20
2009,09,21,06,24,8.20
2009,09,21,06,25,8.20
2009,09,21,06,26,8.20
2009,09,21,06,27,8.20
2009,09,21,06,28,8.20
2009,09,21,06,29,8.20
2009,09,21,06,30,8.20
2009,09,21,06,31,8.20
2009,09,21,06,32,8.20
2009,09,21,06,33,8.20
2009,09,21,06,34,8.30
2009,09,21,06,35,8.30
2009,09,21,06,36,8.30
2009,09,21,06,37,8.30
2009,09,21,06,38,8.30
2009,09,21,06,39,8.30
2009,09,21,06,40,8.30
2009,09,21,06,41,8.30
2009,09,21,06,42,8.40
2009,09,21,06,43,8.40
2009,09,21,06,44,8.40
2009,09,21,06,45,8.40
2009,09,21,06,46,8.40
2009,09,21,06,47,8.50
2009,09,21,06,48,8.50
2009,09,21,06,49,8.50
2009,09,21,06,50,8.60
2009,09,21,06,51,8.60
2009,09,21,06,52,8.70
2009,09,21,06,53,8.70
2009,09,21,06,54,8.70
2009,09,21,06,55,8.70
2009,09,21,06,56,8.70
2009,09,21,06,57,8.70
2009,09,21,06,58,8.70
2009,09,21,06,59,8.70
2009,09,21,07,00,8.70
2009,09,21,07,01,8.70
2009,09,21,07,02,8.70
2009,09,21,07,03,8.70
2009,09,21,07,04,8.70
2009,09,21,07,05,8.70
2009,09,21,07,06,8.70
2009,09,21,07,07,8.70
2009,09,21,07,08,8.70
2009,09,21,07,09,8.60
2009,09,21,07,10,8.60
2009,09,21,07,11,8.70
2009,09,21,07,12,8.70
2009,09,21,07,13,8.70
2009,09,21,07,14,8.70
2009,09,21,07,15,8.70
2009,09,21,07,16,8.80
2009,09,21,07,17,8.90
2009,09,21,07,18,8.90
2009,09,21,07,19,9.00
2009,09,21,07,20,9.00
2009,09,21,07,21,9.10
2009,09,21,07,22,9.20
2009,09,21,07,23,9.20
2009,09,21,07,24,9.30
2009,09,21,07,25,9.40
2009,09,21,07,26,9.40
2009,09,21,07,27,9.50
2009,09,21,07,28,9.60
2009,09,21,07,29,9.70
2009,09,21,07,30,9.70
2009,09,21,07,31,9.70
2009,09,21,07,32,9.80
2009,09,21,07,33,9.90
2009,09,21,07,34,9.90
2009,09,21,07,35,10.10
2009,09,21,07,36,10.10
2009,09,21,07,37,10.20
2009,09,21,07,38,10.20
2009,09,21,07,39,10.30
2009,09,21,07,40,10.30
2009,09,21,07,41,10.40
2009,09,21,07,42,10.40
2009,09,21,07,43,10.60
2009,09,21,07,44,10.60
2009,09,21,07,45,10.60
2009,09,21,07,46,10.70
2009,09,21,07,47,10.70
2009,09,21,07,48,10.70
2009,09,21,07,49,10.80
2009,09,21,07,50,10.90
2009,09,21,07,51,10.90
2009,09,21,07,52,10.90
2009,09,21,07,53,11.00
2009,09,21,07,54,11.10
2009,09,21,07,55,11.10
2009,09,21,07,56,11.20
2009,09,21,07,57,11.20
2009,09,21,07,58,11.30
2009,09,21,07,59,11.30
2009,09,21,08,00,11.40
2009,09,21,08,01,11.40
2009,09,21,08,02,11.40
2009,09,21,08,03,11.40
2009,09,21,08,04,11.60
2009,09,21,08,05,11.60
2009,09,21,08,06,11.60
2009,09,21,08,07,11.60
2009,09,21,08,08,11.70
2009,09,21,08,09,11.70
2009,09,21,08,10,11.80
2009,09,21,08,11,11.80
2009,09,21,08,12,11.80
2009,09,21,08,13,11.90
2009,09,21,08,14,11.90
2009,09,21,08,15,12.00
2009,09,21,08,16,12.10
2009,09,21,08,17,12.20
2009,09,21,08,18,12.30
2009,09,21,08,19,12.30
2009,09,21,08,20,12.40
2009,09,21,08,21,12.40
2009,09,21,08,22,12.50
2009,09,21,08,23,12.60
2009,09,21,08,24,12.60
2009,09,21,08,25,12.70
2009,09,21,08,26,12.80
2009,09,21,08,27,12.80
2009,09,21,08,28,12.90
2009,09,21,08,29,13.00
2009,09,21,08,30,13.00
2009,09,21,08,31,13.10
2009,09,21,08,32,13.10
2009,09,21,08,33,13.10
2009,09,21,08,34,13.20
2009,09,21,08,35,13.30
2009,09,21,08,36,13.30
2009,09,21,08,37,13.30
2009,09,21,08,38,13.40
2009,09,21,08,39,13.50
2009,09,21,08,40,13.50
2009,09,21,08,41,13.60
2009,09,21,08,42,13.60
2009,09,21,08,43,13.70
2009,09,21,08,44,13.70
2009,09,21,08,45,13.70
2009,09,21,08,46,13.70
2009,09,21,08,47,13.70
2009,09,21,08,48,13.70
2009,09,21,08,49,13.70
2009,09,21,08,50,13.60
2009,09,21,08,51,13.60
2009,09,21,08,52,13.60
2009,09,21,08,53,13.60
2009,09,21,08,54,13.60
2009,09,21,08,55,13.60
2009,09,21,08,56,13.60
2009,09,21,08,57,13.60
2009,09,21,08,58,13.50
2009,09,21,08,59,13.50
2009,09,21,09,00,13.50
2009,09,21,09,01,13.50
2009,09,21,09,02,13.50
2009,09,21,09,03,13.40
2009,09,21,09,04,13.40
2009,09,21,09,05,13.40
2009,09,21,09,06,13.40
2009,09,21,09,07,13.50
2009,09,21,09,08,13.50
2009,09,21,09,09,13.40
2009,09,21,09,10,13.50
2009,09,21,09,11,13.50
2009,09,21,09,12,13.50
2009,09,21,09,13,13.50
2009,09,21,09,14,13.50
2009,09,21,09,15,13.50
2009,09,21,09,16,13.60
2009,09,21,09,17,13.60
2009,09,21,09,18,13.60
2009,09,21,09,19,13.70
2009,09,21,09,20,13.70
2009,09,21,09,21,13.70
2009,09,21,09,22,13.80
2009,09,21,09,23,13.80
2009,09,21,09,24,13.90
2009,09,21,09,25,13.90
2009,09,21,09,26,13.90
2009,09,21,09,27,13.90
2009,09,21,09,28,14.00
2009,09,21,09,29,14.00
2009,09,21,09,30,14.00
2009,09,21,09,31,14.00
2009,09,21,09,32,14.00
2009,09,21,09,33,14.10
2009,09,21,09,34,14.10
2009,09,21,09,35,14.10
2009,09,21,09,36,14.20
2009,09,21,09,37,14.10
2009,09,21,09,38,14.10
2009,09,21,09,39,14.10
2009,09,21,09,40,14.20
2009,09,21,09,41,14.10
2009,09,21,09,42,14.10
2009,09,21,09,43,14.10
2009,09,21,09,44,14.10
2009,09,21,09,45,14.10
2009,09,21,09,46,14.10
2009,09,21,09,47,14.10
2009,09,21,09,48,14.20
2009,09,21,09,49,14.20
2009,09,21,09,50,14.20
2009,09,21,09,51,14.20
2009,09,21,09,52,14.20
2009,09,21,09,53,14.20
2009,09,21,09,54,14.20
2009,09,21,09,55,14.20
2009,09,21,09,56,14.20
2009,09,21,09,57,14.20
2009,09,21,09,58,14.20
2009,09,21,09,59,14.20
2009,09,21,10,00,14.20
2009,09,21,10,01,14.30
2009,09,21,10,02,14.30
2009,09,21,10,03,14.30
2009,09,21,10,04,14.30
2009,09,21,10,05,14.30
2009,09,21,10,06,14.40
2009,09,21,10,07,14.40
2009,09,21,10,08,14.40
2009,09,21,10,09,14.40
2009,09,21,10,10,14.40
2009,09,21,10,11,14.40
2009,09,21,10,12,14.40
2009,09,21,10,13,14.50
2009,09,21,10,14,14.60
2009,09,21,10,15,14.60
2009,09,21,10,16,14.70
2009,09,21,10,17,14.80
2009,09,21,10,18,14.80
2009,09,21,10,19,14.80
2009,09,21,10,20,14.80
2009,09,21,10,21,14.80
2009,09,21,10,22,14.80
2009,09,21,10,23,14.80
2009,09,21,10,24,14.80
2009,09,21,10,25,14.90
2009,09,21,10,26,14.90
2009,09,21,10,27,14.90
2009,09,21,10,28,14.90
2009,09,21,10,29,14.90
2009,09,21,10,30,15.00
2009,09,21,10,31,15.00
2009,09,21,10,32,15.00
2009,09,21,10,33,15.00
2009,09,21,10,34,15.10
2009,09,21,10,35,15.10
2009,09,21,10,36,15.10
2009,09,21,10,37,15.20
2009,09,21,10,38,15.20
2009,09,21,10,39,15.20
2009,09,21,10,40,15.20
2009,09,21,10,41,15.20
2009,09,21,10,42,15.20
2009,09,21,10,43,15.20
2009,09,21,10,44,15.20
2009,09,21,10,45,15.20
2009,09,21,10,46,15.20
2009,09,21,10,47,15.30
2009,09,21,10,48,15.30
2009,09,21,10,49,15.20
2009,09,21,10,50,15.20
2009,09,21,10,51,15.20
2009,09,21,10,52,15.20
2009,09,21,10,53,15.30
2009,09,21,10,54,15.30
2009,09,21,10,55,15.30
2009,09,21,10,56,15.20
2009,09,21,10,57,15.20
2009,09,21,10,58,15.20
2009,09,21,10,59,15.20
2009,09,21,11,00,15.30
2009,09,21,11,01,15.30
2009,09,21,11,02,15.30
2009,09,21,11,03,15.40
2009,09,21,11,04,15.40
2009,09,21,11,05,15.40
2009,09,21,11,06,15.40
2009,09,21,11,07,15.40
2009,09,21,11,08,15.40
2009,09,21,11,09,15.40
2009,09,21,11,10,15.40
2009,09,21,11,11,15.40
2009,09,21,11,12,15.40
2009,09,21,11,13,15.40
2009,09,21,11,14,15.40
2009,09,21,11,15,15.40
2009,09,21,11,16,15.40
2009,09,21,11,17,15.50
2009,09,21,11,18,15.50
2009,09,21,11,19,15.60
2009,09,21,11,20,15.60
2009,09,21,11,21,15.60
2009,09,21,11,22,15.70
2009,09,21,11,23,15.70
2009,09,21,11,24,15.70
2009,09,21,11,25,15.70
2009,09,21,11,26,15.70
2009,09,21,11,27,15.80
2009,09,21,11,28,15.70
2009,09,21,11,29,15.70
2009,09,21,11,30,15.80
2009,09,21,11,31,15.80
2009,09,21,11,32,15.80
2009,09,21,11,33,15.90
2009,09,21,11,34,15.90
2009,09,21,11,35,15.90
2009,09,21,11,36,15.90
2009,09,21,11,37,15.90
2009,09,21,11,38,16.10
2009,09,21,11,39,16.10
2009,09,21,11,40,16.10
2009,09,21,11,41,16.10
2009,09,21,11,42,16.00
2009,09,21,11,43,15.90
2009,09,21,11,44,15.90
2009,09,21,11,45,15.90
2009,09,21,11,46,15.80
2009,09,21,11,47,15.80
2009,09,21,11,48,15.70
2009,09,21,11,49,15.60
2009,09,21,11,50,15.60
2009,09,21,11,51,15.60
2009,09,21,11,52,15.50
2009,09,21,11,53,15.60
2009,09,21,11,54,15.60
2009,09,21,11,55,15.50
2009,09,21,11,56,15.50
2009,09,21,11,57,15.50
2009,09,21,11,58,15.50
2009,09,21,11,59,15.50
2009,09,21,12,00,15.60
2009,09,21,12,01,15.60
2009,09,21,12,02,15.70
2009,09,21,12,03,15.70
2009,09,21,12,04,15.80
2009,09,21,12,05,15.80
2009,09,21,12,06,15.80
2009,09,21,12,07,15.70
2009,09,21,12,08,15.80
2009,09,21,12,09,15.80
2009,09,21,12,10,15.90
2009,09,21,12,11,16.00
2009,09,21,12,12,16.10
2009,09,21,12,13,16.10
2009,09,21,12,14,16.10
2009,09,21,12,15,16.10
2009,09,21,12,16,15.90
2009,09,21,12,17,15.80
2009,09,21,12,18,15.80
2009,09,21,12,19,15.70
2009,09,21,12,20,15.70
2009,09,21,12,21,15.70
2009,09,21,12,22,15.60
2009,09,21,12,23,15.60
2009,09,21,12,24,15.60
2009,09,21,12,25,15.60
2009,09,21,12,26,15.60
2009,09,21,12,27,15.70
2009,09,21,12,28,15.70
2009,09,21,12,29,15.70
2009,09,21,12,30,15.80
2009,09,21,12,31,15.70
2009,09,21,12,32,15.80
2009,09,21,12,33,15.80
2009,09,21,12,34,15.60
2009,09,21,12,35,15.50
2009,09,21,12,36,15.40
2009,09,21,12,37,15.20
2009,09,21,12,38,15.10
2009,09,21,12,39,15.10
2009,09,21,12,40,15.00
2009,09,21,12,41,15.00
2009,09,21,12,42,14.90
2009,09,21,12,43,14.90
2009,09,21,12,44,14.90
2009,09,21,12,45,14.80
2009,09,21,12,46,14.80
2009,09,21,12,47,14.80
2009,09,21,12,48,14.80
2009,09,21,12,49,14.90
2009,09,21,12,50,14.90
2009,09,21,12,51,14.90
2009,09,21,12,52,14.80
2009,09,21,12,53,14.80
2009,09,21,12,54,14.80
2009,09,21,12,55,14.90
2009,09,21,12,56,14.90
2009,09,21,12,57,15.00
2009,09,21,12,58,15.00
2009,09,21,12,59,15.10
2009,09,21,13,00,15.20
2009,09,21,13,01,15.20
2009,09,21,13,02,15.30
2009,09,21,13,03,15.30
2009,09,21,13,04,15.30
2009,09,21,13,05,15.30
2009,09,21,13,06,15.30
2009,09,21,13,07,15.30
2009,09,21,13,08,15.40
2009,09,21,13,09,15.50
2009,09,21,13,10,15.50
2009,09,21,13,11,15.60
2009,09,21,13,12,15.60
2009,09,21,13,13,15.70
2009,09,21,13,14,15.70
2009,09,21,13,15,15.70
2009,09,21,13,16,15.70
2009,09,21,13,17,15.70
2009,09,21,13,18,15.70
2009,09,21,13,19,15.70
2009,09,21,13,20,15.70
2009,09,21,13,21,15.70
2009,09,21,13,22,15.80
2009,09,21,13,23,15.80
2009,09,21,13,24,15.80
2009,09,21,13,25,15.80
2009,09,21,13,26,15.80
2009,09,21,13,27,15.80
2009,09,21,13,28,15.90
2009,09,21,13,29,15.90
2009,09,21,13,30,16.00
2009,09,21,13,31,16.00
2009,09,21,13,32,15.90
2009,09,21,13,33,15.90
2009,09,21,13,34,15.90
2009,09,21,13,35,15.80
2009,09,21,13,36,15.80
2009,09,21,13,37,15.80
2009,09,21,13,38,15.80
2009,09,21,13,39,15.80
2009,09,21,13,40,15.80
2009,09,21,13,41,15.80
2009,09,21,13,42,15.80
2009,09,21,13,43,15.80
2009,09,21,13,44,15.80
2009,09,21,13,45,15.90
2009,09,21,13,46,15.90
2009,09,21,13,47,16.00
2009,09,21,13,48,16.10
2009,09,21,13,49,16.20
2009,09,21,13,50,16.20
2009,09,21,13,51,16.20
2009,09,21,13,52,16.10
2009,09,21,13,53,16.10
2009,09,21,13,54,16.00
2009,09,21,13,55,15.90
2009,09,21,13,56,15.80
2009,09,21,13,57,15.80
2009,09,21,13,58,15.80
2009,09,21,13,59,15.80
2009,09,21,14,00,15.80
2009,09,21,14,01,15.80
2009,09,21,14,02,15.80
2009,09,21,14,03,15.80
2009,09,21,14,04,15.80
2009,09,21,14,05,15.70
2009,09,21,14,06,15.70
2009,09,21,14,07,15.70
2009,09,21,14,08,15.70
2009,09,21,14,09,15.80
2009,09,21,14,10,15.80
2009,09,21,14,11,15.80
2009,09,21,14,12,15.80
2009,09,21,14,13,15.80
2009,09,21,14,14,15.80
2009,09,21,14,15,15.80
2009,09,21,14,16,15.80
2009,09,21,14,17,15.80
2009,09,21,14,18,15.90
2009,09,21,14,19,16.00
2009,09,21,14,20,16.10
2009,09,21,14,21,16.10
2009,09,21,14,22,16.10
2009,09,21,14,23,16.20
2009,09,21,14,24,16.20
2009,09,21,14,25,16.20
2009,09,21,14,26,16.30
2009,09,21,14,27,16.30
2009,09,21,14,28,16.40
2009,09,21,14,29,16.40
2009,09,21,14,30,16.40
2009,09,21,14,31,16.30
2009,09,21,14,32,16.30
2009,09,21,14,33,16.20
2009,09,21,14,34,16.10
2009,09,21,14,35,16.10
2009,09,21,14,36,16.10
2009,09,21,14,37,16.10
2009,09,21,14,38,16.10
2009,09,21,14,39,16.20
2009,09,21,14,40,16.20
2009,09,21,14,41,16.20
2009,09,21,14,42,16.20
2009,09,21,14,43,16.20
2009,09,21,14,44,16.30
2009,09,21,14,45,16.20
2009,09,21,14,46,16.20
2009,09,21,14,47,16.10
2009,09,21,14,48,16.10
2009,09,21,14,49,16.10
2009,09,21,14,50,16.10
2009,09,21,14,51,16.10
2009,09,21,14,52,16.00
2009,09,21,14,53,15.90
2009,09,21,14,54,16.10
2009,09,21,14,55,16.10
2009,09,21,14,56,16.20
2009,09,21,14,57,16.30
2009,09,21,14,58,16.40
2009,09,21,14,59,16.50
2009,09,21,15,00,16.70
2009,09,21,15,01,16.80
2009,09,21,15,02,16.90
2009,09,21,15,03,17.00
2009,09,21,15,04,17.00
2009,09,21,15,05,17.10
2009,09,21,15,06,17.10
2009,09,21,15,07,17.00
2009,09,21,15,08,17.00
2009,09,21,15,09,17.00
2009,09,21,15,10,17.00
2009,09,21,15,11,16.90
2009,09,21,15,12,16.90
2009,09,21,15,13,16.80
2009,09,21,15,14,16.80
2009,09,21,15,15,16.90
2009,09,21,15,16,17.00
2009,09,21,15,17,17.00
2009,09,21,15,18,17.00
2009,09,21,15,19,17.10
2009,09,21,15,20,17.10
2009,09,21,15,21,17.20
2009,09,21,15,22,17.20
2009,09,21,15,23,17.20
2009,09,21,15,24,17.20
2009,09,21,15,25,17.20
2009,09,21,15,26,17.30
2009,09,21,15,27,17.30
2009,09,21,15,28,17.30
2009,09,21,15,29,17.40
2009,09,21,15,30,17.40
2009,09,21,15,31,17.50
2009,09,21,15,32,17.50
2009,09,21,15,33,17.60
2009,09,21,15,34,17.60
2009,09,21,15,35,17.60
2009,09,21,15,36,17.60
2009,09,21,15,37,17.60
2009,09,21,15,38,17.60
2009,09,21,15,39,17.70
2009,09,21,15,40,17.70
2009,09,21,15,41,17.70
2009,09,21,15,42,17.70
2009,09,21,15,43,17.70
2009,09,21,15,44,17.70
2009,09,21,15,45,17.70
2009,09,21,15,46,17.60
2009,09,21,15,47,17.60
2009,09,21,15,48,17.50
2009,09,21,15,49,17.50
2009,09,21,15,50,17.50
2009,09,21,15,51,17.50
2009,09,21,15,52,17.40
2009,09,21,15,53,17.40
2009,09,21,15,54,17.30
2009,09,21,15,55,17.30
2009,09,21,15,56,17.40
2009,09,21,15,57,17.50
2009,09,21,15,58,17.60
2009,09,21,15,59,17.60
2009,09,21,16,00,17.70
2009,09,21,16,01,17.80
2009,09,21,16,02,17.80
2009,09,21,16,03,17.90
2009,09,21,16,04,17.90
2009,09,21,16,05,18.00
2009,09,21,16,06,18.10
2009,09,21,16,07,18.20
2009,09,21,16,08,18.20
2009,09,21,16,09,18.20
2009,09,21,16,10,18.20
2009,09,21,16,11,18.30
2009,09,21,16,12,18.30
2009,09,21,16,13,18.30
2009,09,21,16,14,18.30
2009,09,21,16,15,18.30
2009,09,21,16,16,18.30
2009,09,21,16,17,18.30
2009,09,21,16,18,18.30
2009,09,21,16,19,18.30
2009,09,21,16,20,18.30
2009,09,21,16,21,18.40
2009,09,21,16,22,18.40
2009,09,21,16,23,18.40
2009,09,21,16,24,18.40
2009,09,21,16,25,18.40
2009,09,21,16,26,18.40
2009,09,21,16,27,18.50
2009,09,21,16,28,18.40
2009,09,21,16,29,18.50
2009,09,21,16,30,18.50
2009,09,21,16,31,18.50
2009,09,21,16,32,18.60
2009,09,21,16,33,18.60
2009,09,21,16,34,18.60
2009,09,21,16,35,18.60
2009,09,21,16,36,18.50
2009,09,21,16,37,18.50
2009,09,21,16,38,18.60
2009,09,21,16,39,18.60
2009,09,21,16,40,18.60
2009,09,21,16,41,18.60
2009,09,21,16,42,18.60
2009,09,21,16,43,18.70
2009,09,21,16,44,18.70
2009,09,21,16,45,18.70
2009,09,21,16,46,18.80
2009,09,21,16,47,18.80
2009,09,21,16,48,18.80
2009,09,21,16,49,18.80
2009,09,21,16,50,18.90
2009,09,21,16,51,18.90
2009,09,21,16,52,18.90
2009,09,21,16,53,18.90
2009,09,21,16,54,18.90
2009,09,21,16,55,18.90
2009,09,21,16,56,18.90
2009,09,21,16,57,18.90
2009,09,21,16,58,18.80
2009,09,21,16,59,18.80
2009,09,21,17,00,18.80
2009,09,21,17,01,18.70
2009,09,21,17,02,18.70
2009,09,21,17,03,18.70
2009,09,21,17,04,18.70
2009,09,21,17,05,18.70
2009,09,21,17,06,18.70
2009,09,21,17,07,18.70
2009,09,21,17,08,18.70
2009,09,21,17,09,18.70
2009,09,21,17,10,18.80
2009,09,21,17,11,18.80
2009,09,21,17,12,18.80
2009,09,21,17,13,18.80
2009,09,21,17,14,18.70
2009,09,21,17,15,18.70
2009,09,21,17,16,18.80
2009,09,21,17,17,18.80
2009,09,21,17,18,18.80
2009,09,21,17,19,18.80
2009,09,21,17,20,18.80
2009,09,21,17,21,18.80
2009,09,21,17,22,18.80
2009,09,21,17,23,18.90
2009,09,21,17,24,18.90
2009,09,21,17,25,18.80
2009,09,21,17,26,18.80
2009,09,21,17,27,18.80
2009,09,21,17,28,18.80
2009,09,21,17,29,18.80
2009,09,21,17,30,18.80
2009,09,21,17,31,18.70
2009,09,21,17,32,18.70
2009,09,21,17,33,18.70
2009,09,21,17,34,18.70
2009,09,21,17,35,18.70
2009,09,21,17,36,18.70
2009,09,21,17,37,18.70
2009,09,21,17,38,18.70
2009,09,21,17,39,18.70